WAT5643 KATL-MWCR

Flight info

Callsign WAT5643
Flight time N/A
Altitude 36000
Route GAIRY2 IRQ DCT WIGVO Q77 TEUFL/N0454F350 Q77 SHRKS DCT DEBRL Q93 EBAYY/N0455F360 Q93 VAULT Q79 MCLAW DCT FUNDI/N0456F370 UM335 ALVEK UM328 UCL/N0454F360 DCT LACET UL465 GCM
Aircraft A21N/M-SDE3FGHIJ5RWY/LB1

Departure

Time 2026-05-07 15:33
Airport Hartsfield Jackson Atlanta International Airport (KATL)

Arrival

Time N/A
Airport Owen Roberts International Airport (MWCR)
Time Latitude Longitude Altitude Speed Heading
2026-05-07 15:08 33.64006 -84.42626 1003 ft 0 kts 90°
2026-05-07 15:21 33.64006 -84.42640 1003 ft 2 kts 90°
2026-05-07 15:21 33.64006 -84.42657 1004 ft 2 kts 90°
2026-05-07 15:21 33.64006 -84.42672 1004 ft 1 kts 90°
2026-05-07 15:22 33.64006 -84.42687 1004 ft 2 kts 90°
2026-05-07 15:22 33.64006 -84.42701 1004 ft 2 kts 91°
2026-05-07 15:22 33.64006 -84.42715 1004 ft 2 kts 110°
2026-05-07 15:22 33.64012 -84.42726 1004 ft 2 kts 141°
2026-05-07 15:23 33.64022 -84.42732 1004 ft 2 kts 169°
2026-05-07 15:23 33.64028 -84.42733 1004 ft 1 kts 187°
2026-05-07 15:23 33.64034 -84.42732 1004 ft 0 kts 181°
2026-05-07 15:25 33.64030 -84.42732 1004 ft 0 kts 181°
2026-05-07 15:26 33.64021 -84.42733 1004 ft 1 kts 181°
2026-05-07 15:26 33.64005 -84.42733 1004 ft 2 kts 181°
2026-05-07 15:26 33.63983 -84.42733 1004 ft 3 kts 180°
2026-05-07 15:26 33.63954 -84.42733 1004 ft 5 kts 180°
2026-05-07 15:27 33.63919 -84.42733 1004 ft 5 kts 180°
2026-05-07 15:27 33.63877 -84.42733 1004 ft 6 kts 180°
2026-05-07 15:27 33.63830 -84.42732 1004 ft 7 kts 180°
2026-05-07 15:27 33.63777 -84.42732 1003 ft 9 kts 181°
2026-05-07 15:28 33.63715 -84.42733 1002 ft 11 kts 181°
2026-05-07 15:28 33.63659 -84.42702 1002 ft 12 kts 116°
2026-05-07 15:28 33.63655 -84.42612 1000 ft 14 kts 89°
2026-05-07 15:28 33.63655 -84.42503 998 ft 15 kts 90°
2026-05-07 15:29 33.63655 -84.42371 993 ft 18 kts 90°
2026-05-07 15:29 33.63656 -84.42219 987 ft 21 kts 90°
2026-05-07 15:29 33.63655 -84.42062 981 ft 23 kts 90°
2026-05-07 15:29 33.63656 -84.41897 973 ft 19 kts 90°
2026-05-07 15:30 33.63656 -84.41743 967 ft 21 kts 89°
2026-05-07 15:30 33.63656 -84.41571 964 ft 20 kts 90°
2026-05-07 15:30 33.63656 -84.41438 963 ft 17 kts 91°
2026-05-07 15:30 33.63655 -84.41303 962 ft 17 kts 90°
2026-05-07 15:31 33.63656 -84.41170 963 ft 16 kts 90°
2026-05-07 15:31 33.63656 -84.41032 960 ft 15 kts 90°
2026-05-07 15:31 33.63637 -84.40926 956 ft 17 kts 134°
2026-05-07 15:31 33.63543 -84.40907 956 ft 17 kts 184°
2026-05-07 15:32 33.63479 -84.40923 956 ft 9 kts 230°
2026-05-07 15:32 33.63472 -84.41025 959 ft 36 kts 270°
2026-05-07 15:32 33.63473 -84.41476 965 ft 96 kts 269°
2026-05-07 15:32 33.63472 -84.42311 991 ft 146 kts 271°
2026-05-07 15:33 33.63479 -84.43478 1083 ft 182 kts 271°
2026-05-07 15:33 33.63487 -84.44756 1618 ft 184 kts 271°
2026-05-07 15:33 33.63466 -84.46010 2396 ft 179 kts 270°
2026-05-07 15:33 33.63424 -84.47229 3102 ft 176 kts 268°
2026-05-07 15:34 33.63149 -84.48482 3533 ft 192 kts 250°
2026-05-07 15:34 33.62676 -84.49615 3899 ft 206 kts 246°
2026-05-07 15:34 33.62009 -84.51081 4276 ft 228 kts 245°
2026-05-07 15:34 33.61345 -84.52565 4748 ft 242 kts 246°
2026-05-07 15:35 33.60688 -84.54074 5310 ft 251 kts 246°
2026-05-07 15:35 33.60026 -84.55622 6077 ft 251 kts 246°
2026-05-07 15:35 33.59231 -84.57058 6830 ft 256 kts 231°
2026-05-07 15:35 33.58006 -84.58089 7546 ft 267 kts 210°
2026-05-07 15:36 33.56491 -84.58530 8240 ft 280 kts 191°
2026-05-07 15:36 33.54797 -84.58539 8984 ft 283 kts 187°
2026-05-07 15:36 33.53632 -84.58521 9476 ft 284 kts 187°
2026-05-07 15:37 33.49658 -84.58404 11062 ft 293 kts 180°
2026-05-07 15:37 33.47854 -84.57603 11725 ft 316 kts 156°
2026-05-07 15:37 33.46238 -84.55705 12432 ft 338 kts 129°
2026-05-07 15:37 33.45427 -84.53213 12830 ft 364 kts 103°
2026-05-07 15:38 33.45287 -84.50555 13134 ft 381 kts 92°
2026-05-07 15:38 33.45371 -84.47839 13399 ft 395 kts 89°
2026-05-07 15:38 33.45493 -84.45057 13653 ft 409 kts 89°
2026-05-07 15:38 33.45574 -84.42181 14045 ft 417 kts 91°
2026-05-07 15:39 33.45603 -84.39183 14567 ft 421 kts 92°
2026-05-07 15:39 33.45598 -84.36216 15065 ft 426 kts 92°
2026-05-07 15:39 33.45641 -84.33020 15603 ft 431 kts 89°
2026-05-07 15:39 33.45852 -84.29515 16148 ft 437 kts 86°
2026-05-07 15:40 33.46099 -84.26347 16607 ft 443 kts 85°
2026-05-07 15:40 33.46360 -84.23166 17078 ft 448 kts 84°
2026-05-07 15:40 33.46621 -84.20006 17537 ft 452 kts 84°
2026-05-07 15:40 33.46882 -84.16812 17996 ft 456 kts 84°
2026-05-07 15:41 33.47183 -84.13082 18518 ft 461 kts 84°
2026-05-07 15:41 33.47488 -84.09266 19070 ft 465 kts 84°
2026-05-07 15:41 33.47793 -84.05416 19624 ft 468 kts 85°
2026-05-07 15:41 33.48051 -84.02061 20097 ft 471 kts 86°
2026-05-07 15:42 33.48000 -83.98801 20488 ft 470 kts 102°
2026-05-07 15:42 33.47195 -83.95699 20908 ft 461 kts 122°
2026-05-07 15:42 33.45786 -83.93017 21408 ft 452 kts 133°
2026-05-07 15:42 33.44106 -83.90369 21877 ft 453 kts 135°
2026-05-07 15:43 33.42521 -83.87865 22252 ft 457 kts 133°
2026-05-07 15:43 33.40770 -83.84940 22711 ft 461 kts 131°
2026-05-07 15:43 33.39052 -83.81893 23224 ft 464 kts 130°
2026-05-07 15:43 33.37388 -83.78812 23741 ft 466 kts 129°
2026-05-07 15:44 33.35731 -83.75662 24202 ft 468 kts 128°
2026-05-07 15:44 33.34150 -83.72613 24629 ft 471 kts 128°
2026-05-07 15:44 33.32544 -83.69497 25036 ft 474 kts 128°
2026-05-07 15:44 33.30927 -83.66354 25442 ft 477 kts 128°
2026-05-07 15:45 33.29402 -83.63386 25800 ft 480 kts 128°
2026-05-07 15:45 33.27947 -83.60557 26122 ft 483 kts 128°
2026-05-07 15:45 33.26242 -83.57239 26514 ft 486 kts 127°
2026-05-07 15:45 33.24576 -83.54005 26879 ft 488 kts 127°
2026-05-07 15:46 33.21302 -83.47644 27707 ft 490 kts 128°
2026-05-07 15:46 33.19638 -83.44422 28107 ft 491 kts 128°
2026-05-07 15:46 33.17897 -83.41049 28456 ft 493 kts 128°
2026-05-07 15:47 33.16184 -83.37737 28782 ft 496 kts 127°
2026-05-07 15:47 33.14483 -83.34459 29081 ft 499 kts 128°
2026-05-07 15:47 33.12768 -83.31150 29350 ft 501 kts 128°
2026-05-07 15:47 33.11160 -83.28045 29615 ft 503 kts 128°
2026-05-07 15:48 33.09477 -83.24802 29918 ft 504 kts 128°
2026-05-07 15:48 33.07735 -83.21442 30218 ft 506 kts 128°
2026-05-07 15:48 33.06180 -83.18450 30532 ft 505 kts 128°
2026-05-07 15:48 33.04606 -83.15426 30911 ft 503 kts 128°
2026-05-07 15:49 33.03025 -83.12389 31255 ft 502 kts 128°
2026-05-07 15:49 33.01462 -83.09389 31587 ft 501 kts 129°
2026-05-07 15:49 32.99929 -83.06441 31921 ft 499 kts 128°
2026-05-07 15:49 32.98264 -83.03249 32263 ft 498 kts 128°
2026-05-07 15:50 32.96582 -83.00028 32570 ft 497 kts 129°
2026-05-07 15:50 32.94921 -82.96847 32920 ft 495 kts 129°
2026-05-07 15:50 32.93255 -82.93663 33328 ft 493 kts 129°
2026-05-07 15:50 32.91629 -82.90559 33681 ft 492 kts 129°
2026-05-07 15:51 32.89951 -82.87360 33974 ft 492 kts 129°
2026-05-07 15:51 32.88284 -82.84187 34227 ft 492 kts 129°
2026-05-07 15:51 32.86587 -82.80952 34443 ft 494 kts 128°
2026-05-07 15:51 32.84878 -82.77709 34619 ft 496 kts 129°
2026-05-07 15:52 32.83199 -82.74522 34777 ft 499 kts 128°
2026-05-07 15:52 32.81463 -82.71225 34965 ft 500 kts 128°
2026-05-07 15:52 32.79765 -82.67996 35233 ft 500 kts 129°
2026-05-07 15:52 32.78049 -82.64737 35483 ft 500 kts 128°
2026-05-07 15:53 32.76356 -82.61527 35643 ft 501 kts 128°
2026-05-07 15:53 32.74615 -82.58233 35806 ft 503 kts 128°
2026-05-07 15:53 32.72883 -82.54961 35932 ft 505 kts 128°
2026-05-07 15:54 32.69311 -82.48213 35932 ft 506 kts 128°
2026-05-07 15:54 32.65777 -82.41544 35938 ft 507 kts 128°
2026-05-07 15:55 32.62210 -82.34821 35942 ft 507 kts 128°
2026-05-07 15:55 32.58636 -82.28091 35947 ft 505 kts 128°
2026-05-07 15:56 32.55036 -82.21331 35950 ft 505 kts 128°
2026-05-07 15:56 32.51488 -82.14693 35952 ft 505 kts 130°
2026-05-07 15:56 32.49441 -82.11557 35952 ft 494 kts 140°
2026-05-07 15:57 32.47810 -82.09653 35955 ft 487 kts 147°
2026-05-07 15:57 32.42754 -82.05743 35961 ft 467 kts 165°
2026-05-07 15:58 32.37687 -82.03817 35970 ft 449 kts 179°
2026-05-07 15:58 32.32590 -82.03313 35972 ft 436 kts 188°
2026-05-07 15:59 32.27470 -82.03196 35970 ft 437 kts 188°
2026-05-07 15:59 32.22279 -82.03062 35971 ft 438 kts 188°
2026-05-07 16:00 32.17142 -82.02898 35967 ft 438 kts 188°
2026-05-07 16:00 32.11960 -82.02719 35968 ft 440 kts 188°
2026-05-07 16:01 32.06807 -82.02536 35968 ft 440 kts 188°
2026-05-07 16:01 32.01688 -82.02353 35968 ft 440 kts 187°
2026-05-07 16:02 31.96491 -82.02167 35972 ft 442 kts 188°
2026-05-07 16:02 31.91249 -82.01981 35974 ft 442 kts 187°
2026-05-07 16:03 31.86056 -82.01593 35974 ft 448 kts 183°
2026-05-07 16:03 31.80779 -82.00659 35975 ft 454 kts 179°
2026-05-07 16:04 31.75607 -81.99598 35975 ft 454 kts 179°
2026-05-07 16:04 31.70362 -81.98521 35983 ft 455 kts 179°
2026-05-07 16:05 31.65086 -81.97440 35994 ft 455 kts 179°
2026-05-07 16:05 31.59872 -81.96377 35998 ft 456 kts 179°
2026-05-07 16:06 31.54606 -81.95301 35997 ft 456 kts 179°
2026-05-07 16:06 31.49311 -81.94226 35999 ft 456 kts 179°
2026-05-07 16:07 31.44001 -81.93147 35988 ft 457 kts 179°
2026-05-07 16:07 31.38692 -81.92069 35988 ft 458 kts 179°
2026-05-07 16:08 31.33420 -81.90998 35977 ft 457 kts 179°
2026-05-07 16:08 31.28152 -81.89932 35973 ft 458 kts 179°
2026-05-07 16:09 31.22855 -81.88859 35971 ft 458 kts 179°
2026-05-07 16:09 31.17557 -81.87788 35967 ft 459 kts 179°
2026-05-07 16:10 31.12230 -81.86713 35968 ft 459 kts 179°
2026-05-07 16:10 31.06878 -81.85632 35971 ft 460 kts 179°
2026-05-07 16:11 31.01537 -81.84556 35973 ft 460 kts 179°
2026-05-07 16:11 30.96297 -81.83500 35976 ft 461 kts 179°